This demonstration page uses our WeatherBlox Daily Observations layout. Learn more.

Left ArrowRight Arrow

Hourly Observations for September 25, 2015

Temp ( °F °C ) Dew Point ( °F °C ) Humidity (%) Winds ( mph kmh ) Pressure ( in mb ) Visibility ( mi km ) Precip ( " mm )
12:35 am 00:35 Mostly Cloudy 65 18.3 61 16.1 87 87 NW 9 15 30.09 1019 10 16 0.00 0.00
12:53 am 00:53 Cloudy 65 18.3 61 16.1 87 87 WNW 9 15 30.10 1019 10 16 0.00 0.00
1:28 am 01:28 Cloudy 64 18 61 16 88 88 NW 8 13 30.09 1019 10 16 0.00 0.00
1:37 am 01:37 Cloudy 65 18.3 61 16.1 87 87 NW 9 15 30.09 1019 10 16 0.00 0.00
1:53 am 01:53 Cloudy 65 18.3 61 16.1 87 87 WNW 6 9 30.10 1019 10 16 0.00 0.00
2:53 am 02:53 Cloudy 65 18.3 61 16.1 87 87 WNW 9 15 30.09 1019 10 16 0.00 0.00
3:13 am 03:13 Cloudy with Light Rain 63 17 63 17 100 100 WNW 6 9 30.06 1018 4 6 0.00 0.00
3:47 am 03:47 Cloudy with Light Rain 63 17 63 17 100 100 W 6 9 30.06 1018 3 5 0.02 0.51
3:53 am 03:53 Cloudy with Light Rain 63 17.2 62 16.7 97 97 W 8 13 30.08 1019 3 5 0.02 0.51
4:53 am 04:53 Cloudy with Mist and Fog 63 17.2 62 16.7 97 97 W 10 17 30.08 1019 4 6 0.03 0.76
5:53 am 05:53 Cloudy with Mist and Fog 63 17.2 62 16.7 97 97 WNW 8 13 30.07 1018 4 6 0.01 0.25
6:53 am 06:53 Cloudy with Mist and Fog 63 17.2 62 16.7 97 97 WNW 7 11 30.08 1019 3 5 0.00 0.00
7:03 am 07:03 Cloudy with Mist and Fog 63 17 63 17 100 100 NW 8 13 30.06 1018 2 3 0.00 0.00
7:13 am 07:13 Cloudy with Mist and Fog 63 17.2 62 16.7 97 97 NW 8 13 30.06 1018 2 3 0.00 0.00
7:20 am 07:20 Cloudy with Mist and Fog 63 17 63 17 100 100 NW 6 9 30.06 1018 2 3 0.00 0.00
7:53 am 07:53 Cloudy with Mist and Fog 64 17.8 63 17.2 96 96 NNW 7 11 30.09 1019 1 2 0.00 0.00
8:39 am 08:39 Cloudy with Mist and Fog 64 17.8 63 17.2 96 96 N 6 9 30.06 1018 3 5 0.01 0.25
8:53 am 08:53 Cloudy with Mist and Fog 65 18.3 63 17.2 93 93 NNE 7 11 30.10 1019 5 8 0.01 0.25
9:53 am 09:53 Cloudy 64 17.8 62 16.7 93 93 NE 8 13 30.12 1020 9 14 0.00 0.00
10:17 am 10:17 Cloudy 64 18 63 17 94 94 ENE 7 11 30.09 1019 9 14 0.00 0.00
10:53 am 10:53 Cloudy 65 18.3 63 17.2 93 93 ENE 8 13 30.13 1020 10 16 0.00 0.00
11:24 am 11:24 Cloudy 64 18 63 17 94 94 ENE 9 15 30.09 1019 10 16 0.00 0.00
11:32 am 11:32 Cloudy 64 18 63 17 94 94 ENE 9 15 30.09 1019 10 16 0.00 0.00
11:53 am 11:53 Cloudy 66 18.9 63 17.2 90 90 ENE 9 15 30.13 1020 10 16 0.00 0.00
12:06 pm 12:06 Cloudy with Light Rain 65 18.3 63 17.2 93 93 ENE 8 13 30.09 1019 7 11 0.00 0.03
12:14 pm 12:14 Cloudy 66 18.9 63 17.2 90 90 ENE 9 15 30.09 1019 10 16 0.00 0.03
12:37 pm 12:37 Cloudy with Mist and Fog 65 18.3 63 17.2 93 93 ENE 10 17 30.09 1019 6 10 0.00 0.03
12:53 pm 12:53 Cloudy 67 19.4 64 17.8 91 91 E 8 13 30.14 1021 10 16 0.00 0.03
1:01 pm 13:01 Cloudy 66 19 63 17 88 88 E 10 17 30.09 1019 10 16 0.00 0.00
1:42 pm 13:42 Cloudy with Light Rain 66 19 63 17 88 88 E 9 15 30.12 1020 8 13 0.00 0.00
1:53 pm 13:53 Cloudy with Light Rain 66 18.9 63 17.2 90 90 ESE 9 15 30.14 1021 10 16 0.00 0.03
2:16 pm 14:16 Cloudy with Light Rain 66 18.9 63 17.2 90 90 E 12 19 30.09 1019 9 14 0.00 0.03
2:39 pm 14:39 Cloudy 67 19.4 62 16.7 84 84 ESE 12 19 30.09 1019 10 16 0.00 0.03
2:53 pm 14:53 Cloudy 68 20 63 17.2 84 84 SE 10 17 30.12 1020 10 16 0.00 0.03
3:53 pm 15:53 Mostly Cloudy 70 21.1 62 16.7 76 76 E 7 11 30.11 1020 10 16 0.00 0.00
4:23 pm 16:23 Cloudy 70 21.1 62 16.7 76 76 E 5 7 30.06 1018 10 16 0.00 0.00
4:33 pm 16:33 Cloudy 70 21.1 62 16.7 76 76 ESE 5 7 30.06 1018 10 16 0.00 0.00
4:53 pm 16:53 Cloudy 71 21.7 62 16.7 73 73 ESE 7 11 30.11 1020 10 16 0.00 0.00
5:46 pm 17:46 Cloudy 70 21.1 63 17.2 79 79 E 8 13 30.06 1018 10 16 0.00 0.00
5:53 pm 17:53 Cloudy 70 21.1 62 16.7 76 76 E 8 13 30.12 1020 10 16 0.00 0.00
6:35 pm 18:35 Cloudy with Rain 66 18.9 64 17.8 93 93 E 7 11 30.09 1019 3 4 0.05 1.27
6:45 pm 18:45 Cloudy with Light Rain 66 18.9 64 17.8 93 93 E 5 7 30.09 1019 6 10 0.06 1.52
6:53 pm 18:53 Mostly Cloudy 65 18.3 64 17.8 97 97 ENE 5 7 30.14 1021 10 16 0.06 1.52
7:53 pm 19:53 Mostly Clear 64 17.8 63 17.2 96 96 E 5 7 30.15 1021 9 14 0.00 0.00
8:53 pm 20:53 Clear with Mist and Fog 63 17.2 62 16.7 97 97 E 5 7 30.16 1021 6 10 0.00 0.00
9:11 pm 21:11 Mostly Clear with Mist and Fog 62 16.7 61 16.1 96 96 ENE 3 6 30.12 1020 2 3 0.00 0.00
9:16 pm 21:16 Mostly Cloudy with Mist and Fog 62 16.7 61 16.1 96 96 NE 3 6 30.12 1020 1 1 0.00 0.00
9:27 pm 21:27 Clear with Mist and Fog 62 16.7 61 16.1 96 96 ENE 3 6 30.12 1020 1 2 0.00 0.00
9:34 pm 21:34 Clear with Fog 61 16 61 16 100 100 NE 5 7 30.12 1020 1 1 0.00 0.00
9:51 pm 21:51 Mostly Cloudy with Mist and Fog 63 17 61 16 94 94 NE 3 6 30.12 1020 2 3 0.00 0.00
9:52 pm 21:52 Mostly Cloudy with Mist and Fog 62 16.7 61 16.1 96 96 NE 3 6 30.17 1022 3 4 0.00 0.00
9:59 pm 21:59 Mostly Cloudy with Mist and Fog 62 16.7 61 16.1 96 96 ENE 3 6 30.12 1020 4 6 0.00 0.00
10:53 pm 22:53 Cloudy with Mist and Fog 63 17.2 62 16.7 97 97 E 3 6 30.18 1022 4 6 0.00 0.00
11:31 pm 23:31 Cloudy with Mist and Fog 64 17.8 63 17.2 96 96 NE 3 6 30.15 1021 4 6 0.00 0.00
11:53 pm 23:53 Cloudy with Mist and Fog 64 17.8 63 17.2 96 96 Calm 30.18 1022 4 6 0.00 0.00

Powered by AerisWeather